[[{"header":{"parameterUnit":"m.s-1","parameterCategory":1,"la1":30.2991,"la2":30.254,"lo1":-89.0895,"lo2":-89.0444,"dy":0.0017,"dx":0.0017,"nx":28,"ny":28,"refTime":"2024-09-28T21:00:00:Z","depth":0,"parameterNumber":2,"parameterNumberName":"U-component_of_WINDS"},"data":[0,0,0,0,0,0,0,0,0,0,0,0,0,0,0,0,0,0,0,0,0,0,0,0,0,0,0,0,0,0,0,0,0,0,0,0,0,0,0,0,0,0,0,0,0,0,0,0,0,0,0,0,0,0,0,0,0,0,4.1879,4.1881,0,4.207,4.2072,4.2075,4.2024,4.202,4.2016,4.2012,4.2213,4.2222,4.223,0,0,0,0,0,0,0,0,0,0,0,0,0,4.1472,4.148,4.1879,4.1881,4.1883,4.207,4.2072,4.2075,4.2024,4.202,4.2015,4.2011,4.221,4.2221,4.2231,0,0,0,0,0,0,0,0,0,0,0,0,0,4.1655,4.1482,4.1878,4.1881,4.1883,4.2069,4.2073,4.2076,4.2025,4.202,4.2014,4.2008,4.2207,4.2219,4.2233,4.243,0,0,4.2274,4.2279,0,0,0,0,0,0,0,0,4.1645,4.167,4.1878,4.1881,4.1883,4.2017,4.2003,4.2195,4.2027,4.1971,4.2012,4.2006,4.2153,4.217,4.2219,4.244,4.2448,4.2275,4.2283,4.2289,4.2292,0,0,0,0,0,0,0,4.1632,4.1661,4.1955,4.1881,4.1884,4.1873,4.1893,4.2039,4.2092,4.1976,4.1972,4.1996,4.2153,4.2206,4.2223,4.2451,4.2274,4.2286,4.2294,4.23,4.2842,4.2848,0,0,0,0,0,0,4.1617,4.1651,4.1948,4.196,4.1747,4.1885,4.1907,4.198,4.209,4.2101,4.2,4.1993,4.2186,4.2208,4.223,4.2467,4.2288,4.2301,4.2309,4.2835,4.2843,4.285,0,0,0,0,0,0,4.1608,4.1644,4.1941,4.1805,4.1842,4.1898,4.1981,4.1987,4.204,4.2109,4.2118,4.2044,4.2182,4.2211,4.238,4.2473,4.2307,4.2319,4.2828,4.2838,4.2847,4.2943,0,0,0,0,0,0,4.1597,4.1641,4.1716,4.1807,4.1849,4.2087,4.1987,4.1995,4.2062,4.2054,4.2153,4.2164,4.218,4.236,4.2393,4.2489,4.233,4.282,4.2832,4.2844,4.2932,4.2955,4.2975,0,0,0,0,0,4.1582,4.1737,4.172,4.1756,4.1944,4.2092,4.2117,4.2131,4.207,4.2146,4.219,4.216,4.2458,4.2378,4.2415,4.2515,4.2814,4.2829,4.2843,4.2922,4.295,4.2974,0,0,0,0,0,0,4.1657,4.1749,4.1731,4.192,4.1998,4.2083,4.218,4.2161,4.226,4.2248,4.2263,4.2286,4.2458,4.2504,4.2414,4.2712,4.2627,4.265,4.2675,4.2702,4.2723,4.2708,4.2341,0,0,0,0,0,4.1695,4.1807,4.1882,4.2041,4.2081,4.2124,4.2189,4.2193,4.2276,4.231,4.2366,4.2449,4.2561,4.2634,4.2741,4.2939,4.2959,4.3026,4.3047,4.3064,4.3083,4.3189,4.322,4.2897,4.2897,4.2897,0,0,4.1776,4.184,4.191,4.2057,4.2119,4.2235,4.2152,4.2279,4.2365,4.233,4.2491,4.2536,4.2629,4.2813,4.2896,4.2856,4.3177,4.3083,4.3096,4.3106,4.3207,4.3238,4.3265,4.2907,4.2905,4.2904,0,0,4.1981,4.2041,4.2179,4.2242,4.2336,4.2363,4.2396,4.2484,4.2512,4.2674,4.2649,4.2753,4.2946,4.3012,4.3072,4.3301,4.3277,4.3336,4.3447,4.355,4.3575,4.3598,4.3678,4.3707,4.3355,4.3355,4.3355,0,4.207,4.2242,4.2253,4.2382,4.2447,4.2418,4.2558,4.2619,4.2744,4.279,4.2742,4.2982,4.3043,4.3241,4.3296,4.3346,4.3384,4.3324,4.357,4.3593,4.3615,4.3691,4.3722,4.3361,4.336,4.336,4.3359,0,4.2346,4.2466,4.2567,4.2685,4.2762,4.2896,4.2927,4.3004,4.3001,4.3034,4.3199,4.3271,4.3391,4.3438,4.3438,4.3636,4.3608,4.3566,4.3481,4.3651,4.3724,4.3753,4.337,4.3368,4.3366,4.3365,0,0,4.2605,4.2726,4.2762,4.2815,4.2915,4.3009,4.3141,4.3257,4.3321,4.3409,4.3519,4.3682,4.3643,4.3711,4.3718,4.3808,4.3983,4.3755,4.3757,4.3793,4.4204,4.4234,4.4268,4.3968,4.3974,4.3978,4.4196,0,4.2817,4.3048,4.3061,4.3271,4.3382,4.3355,4.347,4.3545,4.3579,4.3678,4.3716,4.383,4.3771,4.3811,4.3899,4.3943,4.4066,4.3928,4.4072,4.4076,4.4047,4.4306,4.4339,4.454,4.4224,4.4229,4.4233,0,4.3097,4.319,4.341,4.3492,4.3539,4.3643,4.3748,4.3844,4.3928,4.3946,4.402,4.4014,4.415,4.4061,4.4248,4.4154,4.4213,4.4244,4.4252,4.4265,4.4164,4.4325,4.4605,4.4635,4.4278,4.4274,4.4271,0,4.3261,4.3442,4.3596,4.3642,4.3743,4.3816,4.3862,4.394,4.4008,4.4101,4.4145,4.4254,4.4313,4.4398,4.4421,4.4355,4.4608,4.4521,4.4626,4.4626,4.468,4.4676,4.4973,4.4721,4.4721,4.472,4.4719,0,4.3497,4.3632,4.3671,4.3766,4.3916,4.393,4.408,4.4121,4.419,4.4293,4.4278,4.4375,4.44,4.4502,4.4522,4.4673,4.4701,4.4719,4.4722,4.472,4.4717,4.4758,4.4744,4.4728,4.4726,4.4725,4.4723,0,4.3706,4.3737,4.3903,4.3984,4.4008,4.4115,4.4185,4.4277,4.4308,4.4438,4.4469,4.4519,4.4638,4.4669,4.4813,4.4826,4.5003,4.4994,4.4974,4.4974,4.5076,4.5066,4.5408,4.5453,4.5174,4.5176,4.5179,0,4.3854,4.3957,4.4048,4.4115,4.4163,4.4272,4.434,4.4358,4.443,4.4532,4.4612,4.4728,4.4822,4.5014,4.5063,4.5172,4.5165,4.5278,4.5181,4.5175,4.5165,4.5158,4.5167,4.5295,4.5298,4.5301,4.5303,0,4.4112,4.4122,4.422,4.4325,4.4406,4.449,4.457,4.4625,4.4655,4.4737,4.4857,4.493,4.5074,4.519,4.53,4.5348,4.5331,4.5333,4.5362,4.536,4.5343,4.5352,4.5022,4.5325,4.5322,4.5321,4.532,4.5319,4.4294,4.4383,4.4461,4.4571,4.4632,4.4707,4.4796,4.4837,4.4937,4.5055,4.506,4.5191,4.5271,4.5416,4.547,4.5573,4.5539,4.5583,4.5594,4.5604,4.5611,4.5328,4.5593,4.5593,4.5592,4.5592,4.5591,0,4.455,4.4598,4.4699,4.481,4.4896,4.4871,4.4957,4.5032,4.5146,4.5222,4.5314,4.5451,4.5563,4.5621,4.5732,4.5803,4.5797,4.5831,4.5826,4.5837,4.5636,4.5598,4.5834,4.5834,4.5833,4.5833,4.5833,4.5833,4.4693,4.4842,4.4861,4.5041,4.5089,4.5215,4.5266,4.5335,4.5395,4.5548,4.564,4.5676,4.5745,4.586,4.5962,4.5976,4.6017,4.6054,4.6064,4.5876,4.5851,4.5827,4.5792,4.6064,4.6064,4.6256,4.6258,4.6259]},{"header":{"parameterUnit":"m.s-1","parameterCategory":1,"la1":30.2991,"la2":30.254,"lo1":-89.0895,"lo2":-89.0444,"dy":0.0017,"dx":0.0017,"nx":28,"ny":28,"refTime":"2024-09-28T21:00:00:Z","depth":0,"parameterNumber":3,"parameterNumberName":"V-component_of_WINDS"},"data":[0,0,0,0,0,0,0,0,0,0,0,0,0,0,0,0,0,0,0,0,0,0,0,0,0,0,0,0,0,0,0,0,0,0,0,0,0,0,0,0,0,0,0,0,0,0,0,0,0,0,0,0,0,0,0,0,0,0,0.6083,0.6084,0,0.6141,0.6142,0.6143,0.6117,0.6116,0.6114,0.6113,0.6176,0.6179,0.6182,0,0,0,0,0,0,0,0,0,0,0,0,0,0.5953,0.5955,0.6083,0.6084,0.6085,0.6141,0.6142,0.6143,0.6118,0.6116,0.6114,0.6112,0.6175,0.6179,0.6182,0,0,0,0,0,0,0,0,0,0,0,0,0,0.601,0.5956,0.6083,0.6079,0.6079,0.6141,0.6142,0.6143,0.6118,0.6116,0.6114,0.6112,0.6174,0.6178,0.6183,0.6254,0,0,0.6197,0.6199,0,0,0,0,0,0,0,0,0.6007,0.6015,0.6079,0.6079,0.6079,0.612,0.6119,0.618,0.6119,0.6103,0.6113,0.6111,0.6159,0.6165,0.6181,0.6257,0.626,0.6197,0.62,0.6202,0.6203,0,0,0,0,0,0,0,0.6003,0.6012,0.6106,0.608,0.608,0.6075,0.608,0.6131,0.6143,0.6104,0.6103,0.611,0.6159,0.6176,0.6182,0.626,0.6197,0.6201,0.6204,0.6206,0.6398,0.64,0,0,0,0,0,0,0.5998,0.6009,0.6104,0.6108,0.6037,0.6079,0.6085,0.6109,0.6142,0.6145,0.6112,0.6108,0.617,0.6177,0.6184,0.627,0.6202,0.6206,0.6209,0.6395,0.6398,0.6401,0,0,0,0,0,0,0.5996,0.6007,0.6102,0.6058,0.607,0.6083,0.611,0.6111,0.6129,0.6147,0.615,0.6127,0.6168,0.6178,0.6237,0.6272,0.6208,0.6212,0.6393,0.6396,0.64,0.6442,0,0,0,0,0,0,0.5992,0.6006,0.6033,0.6059,0.6072,0.6153,0.6112,0.6114,0.6136,0.6132,0.6162,0.6165,0.6167,0.623,0.6241,0.6277,0.6216,0.639,0.6394,0.6398,0.6437,0.6446,0.6454,0,0,0,0,0,0.5988,0.6043,0.6035,0.6046,0.6106,0.6155,0.6163,0.6163,0.6139,0.6166,0.6178,0.6164,0.6266,0.6236,0.6248,0.6286,0.6387,0.6393,0.6398,0.6434,0.6445,0.6454,0,0,0,0,0,0,0.6023,0.6047,0.6037,0.6103,0.6127,0.6151,0.6185,0.6175,0.6207,0.6203,0.6202,0.6209,0.627,0.6284,0.625,0.6357,0.6323,0.6331,0.6346,0.6356,0.6365,0.6361,0.6219,0,0,0,0,0,0.6038,0.6075,0.6094,0.615,0.6163,0.6172,0.6193,0.6191,0.6217,0.6227,0.6244,0.627,0.6307,0.6332,0.6368,0.6438,0.6445,0.647,0.6479,0.6485,0.6493,0.6532,0.6544,0.6419,0.6418,0.6418,0,0,0.607,0.6088,0.6112,0.6158,0.6176,0.6216,0.6181,0.6224,0.6254,0.6234,0.6291,0.6303,0.6332,0.6397,0.6427,0.6411,0.6529,0.6492,0.6498,0.6502,0.6539,0.655,0.6561,0.6422,0.6422,0.6421,0,0,0.615,0.6166,0.6215,0.6233,0.6261,0.6267,0.6278,0.6303,0.6311,0.6367,0.6353,0.6388,0.6453,0.6474,0.6494,0.6579,0.6568,0.6591,0.6636,0.6673,0.6683,0.6692,0.6724,0.6735,0.6598,0.6598,0.6598,0,0.6187,0.6245,0.6241,0.6286,0.6307,0.6289,0.6339,0.6357,0.6396,0.6411,0.6392,0.6472,0.6491,0.6561,0.6581,0.6597,0.6611,0.6589,0.6682,0.669,0.6699,0.6729,0.6741,0.6601,0.6601,0.66,0.66,0,0.6289,0.6329,0.6366,0.6402,0.6427,0.6474,0.6478,0.6504,0.6499,0.6507,0.6564,0.6585,0.6625,0.6641,0.6637,0.671,0.67,0.6681,0.6648,0.6713,0.6742,0.6753,0.6605,0.6604,0.6603,0.6602,0,0,0.6394,0.6427,0.644,0.6457,0.6485,0.6517,0.6563,0.66,0.6623,0.6649,0.6689,0.6743,0.6726,0.6748,0.6746,0.6779,0.6846,0.6756,0.6757,0.6774,0.6929,0.6944,0.6958,0.6838,0.684,0.6842,0.6927,0,0.6476,0.6556,0.6554,0.6629,0.6666,0.6649,0.6689,0.6712,0.672,0.6753,0.6762,0.6801,0.6775,0.6788,0.682,0.6832,0.6878,0.6825,0.6876,0.6878,0.6871,0.6972,0.6988,0.7068,0.6938,0.694,0.6941,0,0.6584,0.6613,0.6691,0.6713,0.6729,0.6765,0.6799,0.6831,0.6856,0.6859,0.6883,0.6876,0.6923,0.6887,0.6953,0.6917,0.6937,0.6946,0.6949,0.6955,0.6915,0.6983,0.7093,0.7105,0.6959,0.6957,0.6956,0,0.6654,0.6712,0.6766,0.6781,0.6808,0.6834,0.6847,0.687,0.6892,0.6922,0.6937,0.6972,0.6992,0.7019,0.7022,0.6995,0.7089,0.7053,0.7094,0.7094,0.7116,0.7115,0.7233,0.7127,0.7127,0.7127,0.7126,0,0.6747,0.6796,0.6798,0.6832,0.6886,0.6883,0.6937,0.6947,0.6968,0.7004,0.6991,0.7025,0.7026,0.7061,0.7063,0.7118,0.7127,0.7132,0.7132,0.7134,0.7133,0.7148,0.7144,0.713,0.7129,0.7128,0.7128,0,0.6835,0.6839,0.6897,0.6918,0.6924,0.6963,0.6981,0.7014,0.7019,0.7065,0.7076,0.7086,0.7126,0.7131,0.7179,0.718,0.7246,0.724,0.7238,0.7237,0.7279,0.7276,0.7412,0.7431,0.7311,0.7312,0.7313,0,0.6895,0.6932,0.6956,0.6979,0.6993,0.7029,0.7052,0.705,0.7074,0.7105,0.7134,0.7172,0.7204,0.7269,0.7282,0.7318,0.7313,0.7358,0.7319,0.7319,0.7316,0.7314,0.7318,0.7367,0.7368,0.7369,0.737,0,0.7002,0.7001,0.7034,0.7067,0.7094,0.712,0.7144,0.7164,0.7165,0.7193,0.7233,0.7258,0.7305,0.7345,0.738,0.7394,0.7383,0.7382,0.7394,0.7397,0.7395,0.7398,0.726,0.738,0.7379,0.7378,0.7377,0.7377,0.7079,0.7111,0.7132,0.7169,0.7187,0.721,0.7241,0.725,0.7284,0.7322,0.7319,0.7364,0.7388,0.7434,0.745,0.7486,0.7471,0.7488,0.7493,0.7497,0.7502,0.7387,0.7492,0.7492,0.7492,0.7492,0.7492,0,0.7185,0.7198,0.7232,0.7266,0.7295,0.7279,0.7306,0.7331,0.7371,0.7393,0.7423,0.747,0.7508,0.7522,0.7559,0.7585,0.7581,0.7595,0.7594,0.7598,0.7513,0.7499,0.7598,0.7598,0.7598,0.7598,0.7598,0.7598,0.7245,0.7298,0.73,0.7362,0.7375,0.7418,0.7435,0.7456,0.7474,0.7526,0.7557,0.7565,0.7585,0.7623,0.7657,0.766,0.7675,0.7692,0.7693,0.7614,0.7603,0.7593,0.7581,0.7695,0.7695,0.7775,0.7776,0.7776]}]]